Location: Ward Pound Ridge Reservation
(41.2500°N, 73.6000°W)
Time: 14:48:18
(UTC-04:00)

Tiangong 2 - Pass Details

Date: 16 October 2017
Orbit: 388 x 392 km, 42.8° (Epoch: 17 October)

Event Time Altitude Azimuth Distance (km) Brightness Sun altitude
Exits shadow 06:13:06 17° 283° (WNW) 1,058 2.6 -11.0°
Maximum altitude 06:15:25 86° 197° (SSW) 394 1.0 -10.5°
Drops below altitude 10° 06:18:37 10° 106° (ESE) 1,419 5.4 -9.9°
Sets 06:20:41 0° 106° (ESE) 2,273 6.9 -9.5°
